Air Resources Laboratory banner image
Air Resources Laboratory web site National Oceanic and Atmospheric Administration (NOAA)

me roundup


Office: GYX

ASUS41 KGYX 211705
RWRGYX
WEATHER ROUNDUP FOR MAINE AND NEW HAMPSHIRE
NATIONAL WEATHER SERVICE GRAY ME
100 PM EDT MON MAY 21 2018

MEZ002-005-006-010-012-015-018-020-021-024-026-027-029-211800-
MAINE

CITY           SKY/WX    TMP DP  RH WIND       PRES   REMARKS
PORTLAND       FAIR      72  48  42 VRB5G22   30.08F
SANFORD        FAIR      74  35  24 W12G20    30.10F
BAR HARBOR     FAIR      72  38  29 W10G20    30.01F
WISCASSET      FAIR      74  37  26 VRB5G16   30.06F
ROCKLAND       FAIR      69  45  41 SW12G22   30.04F
FRYEBURG       FAIR      74  35  24 W14G21    30.08F
LEWISTONAUBURN FAIR      74  35  24 NW20G28   30.06F
AUGUSTA        FAIR      73  36  25 W8G17     30.04F
WATERVILLE     FAIR      73  40  30 W9G20     30.00F
BANGOR         FAIR      73  38  27 NW13G25   29.99F
GREENVILLE       N/A     67  32  27 NW20G31   29.97F
MILLINOCKET    FAIR      71  34  25 W16G29    29.96F
HOULTON        CLOUDY    68  35  29 W15G36    29.89F
PRESQUE ISLE   CLOUDY    66  33  29 W18G29    29.90S
FRENCHVILLE    PTSUNNY   64  31  28 NW24G39   29.91R
CARIBOU        PTSUNNY   65  31  28 NW17G32   29.88S
$$

NHZ002-005-008-009-011-012-014-211800-
NEW HAMPSHIRE

CITY           SKY/WX    TMP DP  RH WIND       PRES   REMARKS
PORTSMOUTH     SUNNY     74  38  27 W10       30.09F
ROCHESTER      FAIR      74  36  25 W7G21     30.10F
NASHUA         FAIR      73  39  29 W9        30.14F
MANCHESTER     FAIR      76  36  23 VRB6      30.11F
CONCORD        FAIR      75  36  24 VRB5      30.12F
LACONIA        FAIR      72  36  26 NW16G23   30.11
PLYMOUTH       FAIR      71  39  30 W10       30.11F
BERLIN         FAIR      72  35  25 NW8G21    30.07F
WHITEFIELD     FAIR      71  39  31 NW13      30.10F
JAFFREY        FAIR      71  39  31 W6        30.16F
KEENE          FAIR      76  39  26 N7        30.15F
LEBANON        FAIR      75  40  28 VRB6      30.12F
MT WASHINGTON  MOSUNNY   41  30  65 W53G69      N/A
$$

VTZ005-007-008-211800-
VERMONT

CITY           SKY/WX    TMP DP  RH WIND       PRES   REMARKS
ST JOHNSBURY     N/A     73  39  29 MISG      30.09F
MONTPELIER     FAIR      69  40  34 W14G22    30.16F
BURLINGTON     FAIR      74  41  30 VRB5      30.11F
$$

MAZ007-012-024-CTZ003-RIZ002-NYZ038-NYZ072-211800-
SOUTHERN NEW ENGLAND AND NY

CITY           SKY/WX    TMP DP  RH WIND       PRES   REMARKS
BOSTON         FAIR      70  50  49 SE8       30.14F
WORCESTER      FAIR      70  37  29 NW12      30.17F
NANTUCKET      FAIR      68  44  42 VRB6      30.17S
PROVIDENCE     FAIR      72  47  40 S8        30.16F
HARTFORD       FAIR      73  43  33 VRB3      30.17F
ALBANY         FAIR      73  38  27 W3        30.19F
NEW YORK CITY  PTSUNNY   74  46  36 VRB3      30.19F
$$

ANZ081-ANZ082-ANZ150-NHZ014-MEZ023>029-211800-
COASTAL MARINE OBSERVATIONS

STATION/POSITION TIME  TEMP    WIND        PRES    WAVE
                       AIR SEA DIR/SP/G            HT/PER
                 (UTC) (F)     (DEG/KT/KT) (MB)    (FT/S)
MOUNT DESERT ROC 1700   52     210/ 17/ 18 1017.8F
MATINICUS ROCK   1600   53     240/ 16/ 17 1018.4F
ISLE OF SHOALS   1600   63     190/ 12/ 12 1020.2F
JEFFREYS LEDGE   1636      54                N/A     3/ 8
CASHES LEDGE BUO 1650   56 51              1019.6F   3/ 8
$$

.............KEY..............
   WCI - WIND CHILL
   TC  - TEMPERATURE IN CELSIUS
   VSB - VISIBILITY IN MILES
   HX  - HEAT INDEX
   FAIR- INDICATES FEW OR NO CLOUDS BELOW 12,000 FT, WITH NO
         SIGNIFICANT WEATHER AND/OR OBSTRUCTIONS TO VISIBILITY.






Office: BOX ASUS41 KBOX 211610 RWRBOX REGIONAL WEATHER ROUNDUP NATIONAL WEATHER SERVICE BOSTON/NORTON MA 1200 PM EDT MON MAY 21 2018 NOTE: "FAIR" INDICATES FEW OR NO CLOUDS BELOW 12,000 FEET WITH NO SIGNIFICANT WEATHER AND/OR OBSTRUCTIONS TO VISIBILITY. MAZALL-211700- EASTERN MASSACHUSETTS CITY SKY/WX TMP DP RH WIND PRES REMARKS BOSTON FAIR 68 49 50 SE9 30.16S BEVERLY FAIR 70 49 47 SW8 30.15S LAWRENCE FAIR 72 41 32 W5 30.17S BEDFORD FAIR 72 44 36 CALM 30.15S BLUE HILL N/A 68 45 43 VRB3 30.16S NORWOOD FAIR 72 48 42 S6 30.16S MARSHFIELD FAIR 68 43 40 E8 30.16S PLYMOUTH FAIR 70 45 40 CALM 30.16F TAUNTON FAIR 72 46 39 VRB3 30.16S NEW BEDFORD FAIR 71 49 45 CALM 30.16S $$ MAZALL-211700- CAPE COD AND THE ISLANDS CITY SKY/WX TMP DP RH WIND PRES REMARKS FALMOUTH FAIR 68 43 40 VRB6 30.17S HYANNIS FAIR 67 47 48 N7 30.16S CHATHAM FAIR 68 44 42 N6 30.17S PROVINCETOWN FAIR 62 51 67 NW7 30.18S NANTUCKET FAIR 68 45 43 N10 30.17R MARTHAS VNYRD FAIR 70 39 32 E8 30.17S $$ MAZALL-211700- CENTRAL AND WESTERN MASSACHUSETTS CITY SKY/WX TMP DP RH WIND PRES REMARKS WORCESTER FAIR 68 38 33 NW6 30.18S FITCHBURG FAIR 70 37 29 CALM 30.17F ORANGE FAIR 70 37 29 MISG 30.19F SPRINGFIELD NOT AVBL WESTFIELD FAIR 70 39 32 VRB3 30.18F NORTH ADAMS FAIR 67 41 38 W7 30.20F PITTSFIELD FAIR 67 42 40 W6 30.19F $$ RIZALL-211700- RHODE ISLAND CITY SKY/WX TMP DP RH WIND PRES REMARKS PROVIDENCE FAIR 72 45 37 N3 30.18S NEWPORT FAIR 69 50 50 W7 30.18R BLOCK ISLAND N/A N/A N/A N/A MISG N/A SMITHFIELD FAIR 70 45 40 MISG 30.18S WESTERLY FAIR 69 49 48 SE12 30.19R $$ CTZALL-211700- CONNECTICUT CITY SKY/WX TMP DP RH WIND PRES REMARKS BRADLEY INTL FAIR 70 43 37 VRB6 30.19S HARTFORD FAIR 69 44 40 CALM 30.19S BRIDGEPORT FAIR 68 50 52 S8 30.20S DANBURY FAIR 69 46 43 CALM 30.21F GROTON FAIR 67 51 56 SW9 30.18R NEW HAVEN FAIR 71 51 49 S9 30.19S CHESTER FAIR 73 39 29 E3 30.19S MERIDEN FAIR 69 43 38 VRB3 30.19F WILLIMANTIC FAIR 72 41 32 CALM 30.18S OXFORD FAIR 67 41 38 VRB6 30.21S $$ MEZ002-015-021-024-NHZ003-005-008-011-012-014-VTZ005-008-211700- NORTHERN NEW ENGLAND CITY SKY/WX TMP DP RH WIND PRES REMARKS PORTLAND ME FAIR 72 39 30 VRB7 30.10F BANGOR ME FAIR 72 38 29 NW12G21 30.02F CONCORD NH FAIR 72 39 30 N5 30.15F MANCHESTER NH FAIR 72 37 28 VRB5 30.14F NASHUA NH FAIR 70 37 29 W5 30.16F PORTSMOUTH NH NOT AVBL JAFFREY NH FAIR 69 38 32 VRB7 30.18F KEENE NH FAIR 73 36 25 N8 30.18F BURLINGTON VT FAIR 70 42 36 SW7 30.14F MT. WASHINGTON MOSUNNY 39 25 56 NW46G60 N/A WCI 25 $$ NYZ052-076-211700- EASTERN NEW YORK CITY SKY/WX TMP DP RH WIND PRES REMARKS ALBANY FAIR 70 42 36 NE3 30.21F NEW YORK CITY PTSUNNY 71 46 40 E6 30.20S $$ ANZALL-211700- MARINE OBSERVATIONS STATION/POSITION TIME TEMP WIND PRES VSBY WAVE AIR SEA DIR/SP/G HT/PER (UTC) (F) (DEG/KT/KT) (MB) (MI) (FT/S) BOSTON BUOY 1550 59 57 230/ 4/ 4 1021.7R 1/ 6 BUZZARDS BAY 1500 61 40/ 2/ 3 1022.5R NANTUCKET SOUND 1450 55 51 330/ 4/ 6 1021.7 1 MASS BAY-STELLWA 1504 59 1020.1R 2/ 8 ISLE OF SHOALS 1600 63 190/ 12/ 12 1020.2F S OF BLOCK IS 1543 52 N/A 4/ 8 $$ ......................KEY......................... SKY/WX - SKY CONDITION/PRESENT WEATHER TMP - TEMPERATURE IN FAHRENHEIT DWPT - DEWPOINT IN FAHRENHEIT RH - RELATIVE HUMIDITY IN PERCENT WIND - DIRECTION AND SPEED IN MPH PRES - MEAN SEA LEVEL PRESSURE IN INCHES OF HG WCI - WIND CHILL INDEX VSB - VISIBILITY IN MILES HX - HEAT INDEX TC - TEMPERATURE IN CELSIUS VRB - VARIABLE WIND DIRECTION N/A - NOT AVAILABLE